Regional Weather Roundup
Issued by NWS Albany, NY

Home | Current Version | Previous Version | Text Only | Print | Product List | Glossary On
Versions: 1 2 3 4 5 6 7 8 9 10 11 12 13 14 15 16 17 18 19 20 21 22 23 24 25 26 27 28 29 30 31 32 33 34 35 36 37 38 39 40 41 42 43 44 45 46 47 48 49 50
633
ASUS41 KALY 010010
RWRALY

NEW YORK STATE HOURLY WEATHER ROUNDUP
NATIONAL WEATHER SERVICE ALBANY NY
800 PM EDT SUN APR 30 2017

NOTE: "FAIR" INDICATES FEW OR NO CLOUDS BELOW 12,000 FEET WITH NO
SIGNIFICANT WEATHER AND/OR NO OBSTRUCTIONS TO VISIBILITY.

NYZ032-033-038>043-046>054-057>066-NYZ062>081-082-084-010100-
EAST


CITY           SKY/WX    TMP DP  RH WIND       PRES   REMARKS
ALBANY         CLOUDY    50  37  61 NE5       30.16S
GLENS FALLS    CLOUDY    45  39  79 NE6       30.17S
POUGHKEEPSIE   CLOUDY    55  42  61 VRB3      30.17S
NEWBURGH       CLOUDY    57  43  58 S12G17    30.19S
MONTGOMERY     CLOUDY    55  45  68 CALM      30.16F
WHITE PLAINS   MOCLDY    51  40  65 E12       30.21S
ISLIP          CLOUDY    50  42  74 SE13      30.22F
NEW YORK CITY  CLOUDY    56  39  53 SE13      30.19F
CENTRAL PARK   CLOUDY    54  40  59 VRB7      30.21F
$$

NYZ005>009-017-018-044>046-055-056-010100-
CENTRAL


CITY           SKY/WX    TMP DP  RH WIND       PRES   REMARKS
FULTON         MOCLDY    57  43  59 VRB3      29.99F
SYRACUSE       MOCLDY    55  43  63 E14       29.98F
ROME           PTCLDY    51  40  65 E9        30.08F
ELMIRA         CLEAR     69  53  56 S10       29.99F
BINGHAMTON     CLOUDY    59  44  57 S13       30.05S
MONTICELLO     CLOUDY    54  39  58 SE7       30.17S
$$

NYZ026>034-041>043-087-010100-
NORTH


CITY           SKY/WX    TMP DP  RH WIND       PRES   REMARKS
WATERTOWN      MOCLDY    44  37  76 NE16      30.05S
FORT DRUM      NOT AVBL
OGDENSBURG     CLOUDY    42  34  73 NE14G20   30.12S
MASSENA        CLOUDY    41  35  79 E17G25    30.16F
SARANAC LAKE   CLOUDY    38  33  82 NE13      30.09F WCI  30
PLATTSBURGH    CLOUDY    42  32  67 NW7       30.20S
$$

NYZ001>004-010>016-019>021-085-010100-
WEST


CITY           SKY/WX    TMP DP  RH WIND       PRES   REMARKS
NIAGARA FALLS  CLOUDY    46  40  79 NE15      29.94S
BUFFALO        CLOUDY    50  46  86 N20       29.92F
DUNKIRK        MOCLDY    51  49  92 N6        29.92S
JAMESTOWN      CLEAR     70  61  73 S6        29.91F
WELLSVILLE     LGT RAIN  67  61  81 S9G17     29.98F
ROCHESTER      LGT RAIN  45  42  89 N12       29.98R
PENN YAN       PTCLDY    67  50  54 S12       29.96F
$$

             KEY
       WCI = WIND CHILL INDEX
       VSB = VISIBILITY
       HX  = HEAT INDEX
$$




USA.gov is the U.S. government's official web portal to all federal, state and local government web resources and services.